This demonstration page uses our WeatherBlox Daily Observations layout. Learn more.

Left ArrowRight Arrow

44.89941, -97.11507

Hourly Observations for January 19, 2022

Temp ( °F °C ) Dew Point ( °F °C ) Humidity (%) Winds ( mph kmh ) Pressure ( in mb ) Visibility ( mi km ) Precip ( " mm )
12:53 am 00:53 Mostly Clear -1 -18.3 -7 -21.7 75 75 NW 23 37 30.23 1024 10 16 0.00 0.00
1:53 am 01:53 Clear -2 -18.9 -8 -22.2 75 75 NW 21 33 30.26 1025 10 16 0.00 0.00
2:53 am 02:53 Clear -2 -18.9 -9 -22.8 72 72 NW 21 33 30.29 1026 10 16 0.00 0.00
3:53 am 03:53 Clear -3 -19.4 -9 -22.8 75 75 NW 22 35 30.33 1027 10 16 0.00 0.00
4:53 am 04:53 Clear -3 -19.4 -9 -22.8 75 75 NW 20 31 30.37 1029 10 16 0.00 0.00
5:53 am 05:53 Clear -4 -20 -11 -23.9 71 71 NW 20 31 30.42 1030 10 16 0.00 0.00
6:53 am 06:53 Clear -5 -20.6 -12 -24.4 72 72 NW 21 33 30.46 1031 10 16 0.00 0.00
7:53 am 07:53 Clear -7 -21.7 -13 -25 75 75 NW 18 30 30.50 1033 10 16 0.00 0.00
8:53 am 08:53 Sunny -7 -21.7 -13 -25 75 75 NW 18 30 30.55 1034 10 16 0.00 0.00
9:53 am 09:53 Sunny -5 -20.6 -12 -24.4 72 72 NNW 18 30 30.58 1036 10 16 0.00 0.00
10:53 am 10:53 Sunny -4 -20 -12 -24.4 68 68 NNW 20 31 30.62 1037 10 16 0.00 0.00
11:53 am 11:53 Sunny -3 -19.4 -10 -23.3 71 71 NW 15 24 30.63 1037 10 16 0.00 0.00
12:53 pm 12:53 Sunny -1 -18.3 -9 -22.8 68 68 NW 15 24 30.63 1037 10 16 0.00 0.00
1:53 pm 13:53 Sunny 0 -17.8 -8 -22.2 69 69 NW 16 26 30.64 1038 10 16 0.00 0.00
2:53 pm 14:53 Sunny 0 -17.8 -8 -22.2 69 69 NW 14 22 30.64 1038 10 16 0.00 0.00
3:53 pm 15:53 Sunny -1 -18.3 -8 -22.2 72 72 WNW 13 20 30.66 1038 10 16 0.00 0.00
4:53 pm 16:53 Sunny -2 -18.9 -9 -22.8 72 72 NW 10 17 30.68 1039 10 16 0.00 0.00
5:53 pm 17:53 Clear -4 -20 -11 -23.9 71 71 NW 12 19 30.71 1040 10 16 0.00 0.00
6:53 pm 18:53 Clear -6 -21.1 -12 -24.4 75 75 NW 9 15 30.72 1040 10 16 0.00 0.00
7:53 pm 19:53 Clear -7 -21.7 -12 -24.4 79 79 NNW 9 15 30.74 1041 10 16 0.00 0.00
8:53 pm 20:53 Clear -7 -21.7 -13 -25 75 75 NW 8 13 30.74 1041 10 16 0.00 0.00
9:53 pm 21:53 Clear -8 -22.2 -14 -25.6 74 74 NW 7 11 30.75 1041 10 16 0.00 0.00
10:53 pm 22:53 Clear -8 -22.2 -14 -25.6 74 74 NW 8 13 30.75 1041 10 16 0.00 0.00
11:53 pm 23:53 Clear -9 -22.8 -15 -26.1 75 75 NW 8 13 30.76 1042 10 16 0.00 0.00

Powered by AerisWeather